sat.trackr.live / text

‹ back to catalog

TELKOM 3S

NORAD 41944 · 2017-007A

PAYLOAD ACTIVE UNKNOWN

§ Identity

Operator
Country
INDO
Launch date
2017-02-14
Launch site
FRGUI
Launch vehicle
Mass (kg)
RCS (m²)
10.87

Purposes: comms

External: N2YO · Heavens-Above · Gunter

§ Orbital elements

Epoch: 2026-09-09T23:10:05.758752Z

Period
1,436.12 min
Inclination
0.0223°
Eccentricity
0.0002200
Mean motion
1.00270089 rev/d
Perigee alt
35,777.8 km
Apogee alt
35,796.3 km
Semi-major
42,165.2 km
B*
0.0000e+0
RAAN
234.8530°
Arg perigee
301.6723°
Mean anomaly
278.0070°
Rev number
3,498

§ Raw data

TELKOM 3S1 41944U 17007A   26252.96534443 -.00000383  00000+0  00000+0 0  99952 41944   0.0223 234.8530 0002200 301.6723 278.0070  1.00270089 34987

JSON: /api/v1/satellites/41944 · /tle

For live sub-satellite position, see the globe view (requires WebGL).

§ Visibility from observer

Set your observer location to see the next 7 days of passes ≥ 10°. The values pass through the URL so the page stays shareable.

No JS? Fill the form by hand. The geolocation button needs JavaScript.